Preview of NWS' New Version of Forecast
This preview is not operational and should not be used for support decisions.

Regional Weather Roundup (RWR)

Issued by National Weather Service (NWS)

                            
000
ASUS46 KSEW 181310
RWRWA 

WASHINGTON REGIONAL WEATHER ROUNDUP
NATIONAL WEATHER SERVICE SEATTLE WA
600 AM PDT THU APR 18 2019

NOTE:"FAIR" INDICATES FEW OR NO CLOUDS BELOW 12,000 FEET WITH NO 
SIGNIFICANT WEATHER AND/OR OBSTRUCTIONS TO VISIBILITY.

WAZ507-509-555>559-181400-
SEATTLE, TACOMA, EVERETT, AND VICINITY
  
CITY           SKY/WX    TMP DP  RH WIND       PRES   REMARKS
EVERETT        LGT RAIN  51  47  86 VRB6      30.24F                  
BOEING FIELD   CLOUDY    55  46  71 SE5       30.25S                  
RENTON         CLOUDY    54  48  80 CALM      30.25S                  
SEATAC AIRPORT CLOUDY    54  45  71 SE5       30.25S                  
JBLM-MCCHORD   CLOUDY    51  51 100 CALM        N/A                   
PUYALLUP       CLOUDY    52  50  93 CALM      30.25S                  
BREMERTON      CLOUDY    50  49  96 SW5       30.24F                  
JBLM-FT LEWIS  NOT AVBL                                               
TACOMA NARROWS CLOUDY    52  48  86 CALM      30.25S                  
$$
 
WAZ001-503-506-510-514-515-181400-
NORTH INTERIOR
  
CITY           SKY/WX    TMP DP  RH WIND       PRES   REMARKS
BELLINGHAM     LGT RAIN  51  48  89 NE5       30.24F                  
FRIDAY HARBOR  LGT RAIN  50  47  89 NE3       30.23F                  
EASTSOUND      RAIN      52  50  93 VRB6      30.23F                  
PORT ANGELES   LGT RAIN  50  48  93 CALM      30.23F                  
EDIZ HOOK      LGT RAIN  49  48  95 CALM      30.23F                  
PORT TOWNSEND  MOCLDY    50  48  93 CALM      30.22F                  
NAS WHIDBEY    CLOUDY    55  48  77 E5        30.27F                  
ARLINGTON      LGT RAIN  50  48  93 CALM      30.25S                  
BURLINGTON     CLOUDY    52  48  87 CALM      30.25S                  
$$
 
WAZ020-022-039-040-504-511-512-181400-
SOUTHWEST INTERIOR
  
CITY           SKY/WX    TMP DP  RH WIND       PRES   REMARKS
SHELTON        CLOUDY    51  48  89 SW6       30.23S                  
OLYMPIA        CLOUDY    50  47  89 W3        30.25S                  
CHEHALIS       CLOUDY    50  46  87 S6        30.25S                  
KELSO          MOCLDY    49  45  86 SE6       30.27F                  
VANCOUVER      MOCLDY    45  43  93 CALM      30.27F                  
SCAPPOOSE, OR  PTCLDY    47  44  90 CALM      30.27F                  
PORTLAND, OR   MOCLDY    48  44  86 CALM      30.28S                  
$$
 
WAZ021-516-517-181400-
WASHINGTON COAST
  
CITY           SKY/WX    TMP DP  RH WIND       PRES   REMARKS
FORKS          LGT RAIN  50  49  96 SE6       30.19F                  
HOQUIAM        LGT RAIN  51  51 100 E3        30.24F FOG              
ASTORIA, OR    CLOUDY    48  46  93 SE3       30.23F                  
$$
 
WAZ019-023-024-040-567>569-181400-
CASCADE MOUNTAINS AND COLUMBIA GORGE
  
CITY           SKY/WX    TMP DP  RH WIND       PRES   REMARKS
STAMPEDE PASS  NOT AVBL                                               
TROUTDALE, OR  PTCLDY    45  42  89 E3        30.27F                  
HOOD RIVER, OR MOSUNNY   43  41  93 MISG      30.29S                  
THE DALLES, OR PTCLDY    46  43  89 CALM      30.27S                  
$$

WAZ026-027-041>044-520-521-181400-
EAST SLOPES
  
CITY           SKY/WX    TMP DP  RH WIND       PRES   REMARKS
OMAK           CLOUDY    50  39  66 CALM      30.21R                  
WENATCHEE      CLOUDY    51  36  56 W3        30.21S                  
ELLENSBURG     MOCLDY    49  39  68 CALM      30.23F                  
YAKIMA         MOCLDY    48  42  80 NW6       30.24S                  
SUNNYSIDE ARPT NOT AVBL                                               
YAKIMA TC      CLOUDY    46  41  83 SE5       30.22F                  
$$

WAZ028-034-035-181400-
COLUMBIA BASIN
  
CITY           SKY/WX    TMP DP  RH WIND       PRES   REMARKS
EPHRATA        CLOUDY    43  37  79 NE6       30.22S                  
MOSES LAKE     MOCLDY    47  38  71 E3        30.23S                  
PASCO          CLEAR     45  40  82 CALM      30.25S                  
RICHLAND ARPT  PTSUNNY   43  40  91 CALM      30.25R                  
HERMISTON, OR  PTCLDY    46  40  79 S7        30.24F                  
$$

WAZ036>038-181400-
NORTHEAST WASHINGTON
  
CITY           SKY/WX    TMP DP  RH WIND       PRES   REMARKS
SPOKANE GEIGER MOCLDY    43  36  76 S7        30.25F                  
SPOKANE FELTS  CLOUDY    47  38  71 CALM      30.25F                  
FAIRCHILD AFB  NOT AVBL                                               
COEURDALENE,ID CLOUDY    45  39  79 S9        30.26F                  
DEER PARK      CLOUDY    43  39  86 NW3       30.26S                  
$$

WAZ029>033-181400-
SOUTHEAST WASHINGTON
  
CITY           SKY/WX    TMP DP  RH WIND       PRES   REMARKS
PULLMAN        CLEAR     43  38  82 E12       30.29S                  
LEWISTON, ID   CLEAR     45  39  79 E8        30.30S                  
WALLA WALLA    CLEAR     49  37  63 E8        30.25F                  
PENDLETON, OR  CLEAR     43  38  82 S9        30.25F                  
$$